| time (UTC) | temp F | wind direction | speed knots | gust knots | rain 1hr in | rain 24hr in | rain mn in | humidity % | barometer mb |
| 20260507160019 | 51 | 331 | 3.5 | 7.0 | 0.00 | 0.01 | 0.01 | 60 | 1011.6 |
| 20260507155019 | 51 | 316 | 3.5 | 7.8 | 0.00 | 0.01 | 0.01 | 61 | 1011.6 |
| 20260507154020 | 52 | 331 | 5.2 | 7.8 | 0.00 | 0.01 | 0.01 | 61 | 1011.7 |
| 20260507153016 | 52 | 290 | 3.5 | 7.8 | 0.00 | 0.01 | 0.01 | 60 | 1011.8 |
| 20260507152017 | 51 | 211 | 3.5 | 8.7 | 0.00 | 0.01 | 0.01 | 60 | 1011.9 |
| 20260507151017 | 51 | 192 | 3.5 | 7.0 | 0.00 | 0.01 | 0.01 | 64 | 1011.9 |
| 20260507150017 | 51 | 339 | 2.6 | 4.3 | 0.00 | 0.01 | 0.01 | 64 | 1011.9 |
| 20260507145017 | 50 | 264 | 2.6 | 6.1 | 0.00 | 0.01 | 0.01 | 63 | 1012.0 |
| 20260507144017 | 50 | 324 | 2.6 | 5.2 | 0.00 | 0.01 | 0.01 | 65 | 1012.1 |
| 20260507143018 | 49 | 330 | 3.5 | 6.1 | 0.00 | 0.01 | 0.01 | 66 | 1012.1 |
| 20260507142018 | 49 | 181 | 3.5 | 7.8 | 0.00 | 0.01 | 0.01 | 66 | 1012.1 |
| 20260507141018 | 48 | 156 | 1.7 | 5.2 | 0.00 | 0.01 | 0.01 | 65 | 1012.1 |
| 20260507140018 | 47 | 148 | 1.7 | 4.3 | 0.00 | 0.02 | 0.01 | 67 | 1012.2 |
| 20260507135018 | 47 | 163 | 1.7 | 6.1 | 0.00 | 0.03 | 0.01 | 68 | 1012.3 |
| 20260507134018 | 47 | 44 | 1.7 | 3.5 | 0.00 | 0.04 | 0.01 | 68 | 1012.3 |
| 20260507133118 | 47 | 173 | 2.6 | 5.2 | 0.00 | 0.07 | 0.01 | 70 | 1012.2 |
| 20260507132018 | 45 | 165 | 2.6 | 4.3 | 0.00 | 0.07 | 0.01 | 74 | 1012.2 |
| 20260507131019 | 45 | 229 | 1.7 | 3.5 | 0.00 | 0.07 | 0.01 | 75 | 1012.2 |
| 20260507130018 | 44 | 163 | 1.7 | 4.3 | 0.00 | 0.07 | 0.01 | 75 | 1012.3 |
| 20260507125019 | 44 | 134 | 1.7 | 4.3 | 0.00 | 0.07 | 0.01 | 77 | 1012.3 |
| 20260507124016 | 43 | 82 | 0.9 | 2.6 | 0.00 | 0.07 | 0.01 | 80 | 1012.3 |
| 20260507123017 | 42 | 16 | 0.9 | 2.6 | 0.00 | 0.07 | 0.01 | 83 | 1012.4 |
| 20260507122017 | 42 | 2 | 1.7 | 2.6 | 0.00 | 0.07 | 0.01 | 85 | 1012.4 |
| 20260507121017 | 41 | 351 | 1.7 | 3.5 | 0.01 | 0.08 | 0.01 | 88 | 1012.4 |
| 20260507120017 | 41 | 351 | 1.7 | 3.5 | 0.01 | 0.09 | 0.01 | 89 | 1012.4 |
| 20260507115017 | 40 | 1 | 0.9 | 2.6 | 0.01 | 0.09 | 0.01 | 94 | 1012.5 |
| 20260507114017 | 40 | 13 | 1.7 | 3.5 | 0.01 | 0.09 | 0.01 | 99 | 1012.6 |
| 20260507113018 | 40 | 344 | 2.6 | 4.3 | 0.01 | 0.10 | 0.01 | 99 | 1012.8 |
| 20260507112038 | 40 | 334 | 2.6 | 5.2 | 0.01 | 0.10 | 0.01 | 99 | 1012.8 |
| 20260507111018 | 40 | 335 | 1.7 | 4.3 | 0.00 | 0.12 | 0.00 | 99 | 1012.8 |
| 20260507110018 | 40 | 331 | 2.6 | 4.3 | 0.00 | 0.13 | 0.00 | 99 | 1012.4 |
| 20260507105018 | 40 | 334 | 2.6 | 3.5 | 0.00 | 0.14 | 0.00 | 99 | 1012.2 |
| 20260507104019 | 40 | 353 | 1.7 | 2.6 | 0.00 | 0.15 | 0.00 | 99 | 1012.0 |
| 20260507103018 | 39 | 337 | 1.7 | 2.6 | 0.00 | 0.15 | 0.00 | 99 | 1011.9 |
| 20260507102018 | 39 | 343 | 2.6 | 3.5 | 0.00 | 0.16 | 0.00 | 99 | 1011.7 |
| 20260507101039 | 39 | 357 | 0.9 | 2.6 | 0.00 | 0.17 | 0.00 | 99 | 1011.7 |
| 20260507100019 | 38 | 357 | 0.9 | 2.6 | 0.00 | 0.19 | 0.00 | 99 | 1011.7 |
| 20260507095019 | 38 | 357 | 1.7 | 2.6 | 0.00 | 0.20 | 0.00 | 99 | 1011.8 |
| 20260507094016 | 38 | 360 | 1.7 | 1.7 | 0.00 | 0.21 | 0.00 | 99 | 1011.8 |
| 20260507093017 | 37 | 348 | 0.9 | 1.7 | 0.00 | 0.25 | 0.00 | 99 | 1011.8 |
| 20260507092017 | 37 | 7 | 0.9 | 1.7 | 0.00 | 0.26 | 0.00 | 99 | 1011.8 |
| 20260507091017 | 37 | 358 | 1.7 | 2.6 | 0.00 | 0.27 | 0.00 | 99 | 1011.8 |
| 20260507090017 | 37 | 349 | 0.9 | 2.6 | 0.00 | 0.29 | 0.00 | 99 | 1011.8 |
| 20260507085017 | 37 | 7 | 0.0 | 0.9 | 0.00 | 0.30 | 0.00 | 99 | 1011.8 |
| 20260507084038 | 38 | 22 | 0.9 | 1.7 | 0.00 | 0.32 | 0.00 | 99 | 1011.8 |
| 20260507083018 | 38 | 3 | 1.7 | 3.5 | 0.00 | 0.33 | 0.00 | 99 | 1011.9 |
| 20260507082018 | 37 | 355 | 0.9 | 1.7 | 0.00 | 0.35 | 0.00 | 99 | 1012.0 |
| 20260507081018 | 38 | 360 | 0.9 | 1.7 | 0.00 | 0.37 | 0.00 | 99 | 1012.0 |
| 20260507080038 | 38 | 10 | 0.9 | 1.7 | 0.00 | 0.39 | 0.00 | 99 | 1012.0 |
| 20260507075018 | 39 | 64 | 0.0 | 0.9 | 0.00 | 0.40 | 0.00 | 99 | 1011.8 |
| 20260507074018 | 39 | 28 | 0.0 | 1.7 | 0.00 | 0.43 | 0.00 | 99 | 1011.8 |
| 20260507073038 | 39 | 54 | 0.0 | 0.9 | 0.00 | 0.46 | 0.00 | 99 | 1011.8 |
| 20260507072059 | 40 | 147 | 0.0 | 0.9 | 0.00 | 0.48 | 0.00 | 99 | 1011.8 |
| 20260507071039 | 39 | 116 | 0.0 | 0.9 | 0.00 | 0.48 | 0.00 | 99 | 1011.8 |
| 20260507070019 | 40 | 2 | 0.9 | 1.7 | 0.00 | 0.49 | 0.00 | 99 | 1011.8 |
| 20260507065019 | 40 | 1 | 0.0 | 0.9 | 0.00 | 0.51 | 0.00 | 99 | 1011.9 |
| 20260507064019 | 41 | 13 | 0.0 | 1.7 | 0.00 | 0.53 | 0.00 | 99 | 1011.9 |
| 20260507063019 | 41 | 21 | 0.9 | 1.7 | 0.00 | 0.55 | 0.00 | 99 | 1012.1 |
| 20260507062017 | 41 | 7 | 0.0 | 1.7 | 0.00 | 0.56 | 0.00 | 99 | 1012.2 |
| 20260507061016 | 42 | 7 | 0.9 | 1.7 | 0.00 | 0.57 | 0.00 | 99 | 1012.3 |
| 20260507060017 | 41 | 347 | 0.0 | 0.9 | 0.00 | 0.58 | 0.00 | 99 | 1012.4 |
| 20260507055017 | 42 | 353 | 0.9 | 1.7 | 0.00 | 0.58 | 0.00 | 100 | 1012.3 |
| 20260507054018 | 42 | 4 | 0.0 | 1.7 | 0.00 | 0.59 | 0.00 | 100 | 1012.5 |
| 20260507053017 | 42 | 12 | 0.9 | 1.7 | 0.00 | 0.60 | 0.00 | 100 | 1012.5 |
| 20260507052018 | 43 | 49 | 0.9 | 0.9 | 0.00 | 0.61 | 0.00 | 99 | 1012.4 |
| 20260507051018 | 43 | 30 | 0.9 | 1.7 | 0.00 | 0.62 | 0.00 | 99 | 1012.6 |
| 20260507050018 | 43 | 190 | 0.9 | 1.7 | 0.00 | 0.64 | 0.00 | 99 | 1012.7 |
| 20260507045038 | 43 | 81 | 0.9 | 1.7 | 0.00 | 0.67 | 0.00 | 99 | 1012.7 |
| 20260507044018 | 43 | 69 | 0.9 | 1.7 | 0.00 | 0.69 | 0.00 | 99 | 1012.7 |
| 20260507043018 | 43 | 174 | 0.9 | 2.6 | 0.00 | 0.70 | 0.00 | 99 | 1012.8 |
| 20260507042018 | 43 | 16 | 0.9 | 1.7 | 0.00 | 0.71 | 0.00 | 98 | 1012.7 |
| 20260507041018 | 43 | 27 | 0.9 | 1.7 | 0.00 | 0.71 | 0.00 | 98 | 1012.7 |
| 20260507040019 | 43 | 3 | 0.9 | 0.9 | 0.00 | 0.71 | 0.00 | 98 | 1012.6 |
| 20260507035040 | 43 | 176 | 1.7 | 3.5 | 0.00 | 0.71 | 0.71 | 98 | 1012.6 |
| 20260507034016 | 43 | 175 | 0.9 | 1.7 | 0.00 | 0.72 | 0.71 | 98 | 1012.6 |
| 20260507033037 | 43 | 71 | 0.9 | 1.7 | 0.00 | 0.72 | 0.71 | 98 | 1012.6 |
| 20260507032017 | 43 | 183 | 0.9 | 2.6 | 0.00 | 0.73 | 0.71 | 98 | 1012.7 |
| 20260507031017 | 43 | 12 | 0.0 | 0.9 | 0.00 | 0.73 | 0.71 | 97 | 1012.7 |
| 20260507030017 | 43 | 100 | 0.9 | 1.7 | 0.00 | 0.74 | 0.71 | 97 | 1012.7 |
| 20260507025017 | 43 | 178 | 0.9 | 2.6 | 0.00 | 0.76 | 0.71 | 97 | 1012.6 |
| 20260507024017 | 43 | 352 | 0.9 | 1.7 | 0.00 | 0.78 | 0.71 | 97 | 1012.5 |
| 20260507023018 | 43 | 149 | 0.9 | 2.6 | 0.00 | 0.79 | 0.71 | 97 | 1012.4 |
| 20260507022018 | 43 | 127 | 0.9 | 1.7 | 0.00 | 0.82 | 0.71 | 96 | 1012.5 |
| 20260507021017 | 43 | 41 | 0.0 | 1.7 | 0.00 | 0.83 | 0.71 | 96 | 1012.6 |
| 20260507020038 | 43 | 64 | 0.0 | 1.7 | 0.00 | 0.85 | 0.71 | 95 | 1012.9 |
| 20260507015018 | 43 | 188 | 0.9 | 2.6 | 0.00 | 0.86 | 0.71 | 95 | 1013.1 |
| 20260507014019 | 43 | 193 | 0.9 | 1.7 | 0.00 | 0.87 | 0.71 | 96 | 1013.0 |
| 20260507013018 | 43 | 206 | 0.9 | 2.6 | 0.00 | 0.87 | 0.71 | 96 | 1013.0 |
| 20260507012019 | 43 | 187 | 0.9 | 2.6 | 0.00 | 0.88 | 0.71 | 96 | 1012.8 |
| 20260507011019 | 43 | 196 | 0.9 | 1.7 | 0.00 | 0.88 | 0.71 | 96 | 1012.7 |
| 20260507010019 | 43 | 104 | 0.9 | 1.7 | 0.00 | 0.89 | 0.71 | 96 | 1012.6 |
| 20260507005019 | 43 | 104 | 0.9 | 1.7 | 0.00 | 0.90 | 0.71 | 95 | 1012.5 |
| 20260507004036 | 44 | 110 | 0.9 | 1.7 | 0.00 | 0.91 | 0.71 | 95 | 1012.4 |
| 20260507003017 | 44 | 141 | 0.9 | 2.6 | 0.00 | 0.94 | 0.71 | 94 | 1012.2 |
| 20260507002017 | 44 | 13 | 0.9 | 1.7 | 0.00 | 0.97 | 0.71 | 93 | 1012.1 |
| 20260507001017 | 44 | 13 | 0.9 | 1.7 | 0.00 | 1.01 | 0.71 | 92 | 1012.0 |
| 20260507000037 | 44 | 3 | 0.9 | 1.7 | 0.00 | 1.08 | 0.71 | 92 | 1012.0 |
| 20260506235017 | 44 | 353 | 1.7 | 2.6 | 0.00 | 1.15 | 0.71 | 92 | 1011.9 |
| 20260506234017 | 44 | 354 | 1.7 | 2.6 | 0.00 | 1.21 | 0.71 | 91 | 1011.9 |
| 20260506233037 | 44 | 1 | 2.6 | 3.5 | 0.00 | 1.27 | 0.71 | 90 | 1011.9 |
| 20260506232018 | 44 | 2 | 2.6 | 3.5 | 0.00 | 1.31 | 0.71 | 90 | 1011.9 |
| 20260506231018 | 45 | 333 | 3.5 | 4.3 | 0.00 | 1.34 | 0.71 | 90 | 1011.8 |
| 20260506230018 | 44 | 334 | 3.5 | 4.3 | 0.00 | 1.40 | 0.71 | 91 | 1011.7 |
| 20260506225018 | 45 | 340 | 2.6 | 5.2 | 0.00 | 1.43 | 0.71 | 92 | 1011.6 |
| 20260506224019 | 44 | 350 | 2.6 | 5.2 | 0.00 | 1.47 | 0.71 | 94 | 1011.4 |
| 20260506223019 | 43 | 337 | 2.6 | 4.3 | 0.00 | 1.50 | 0.71 | 97 | 1011.2 |
| 20260506222019 | 43 | 334 | 3.5 | 6.1 | 0.00 | 1.55 | 0.71 | 97 | 1011.1 |
| 20260506221019 | 42 | 343 | 3.5 | 5.2 | 0.00 | 1.60 | 0.71 | 98 | 1011.0 |
| 20260506220019 | 42 | 341 | 4.3 | 7.8 | 0.00 | 1.69 | 0.71 | 98 | 1010.9 |
| 20260506215040 | 42 | 341 | 5.2 | 7.8 | 0.00 | 1.74 | 0.71 | 99 | 1010.9 |
| 20260506214016 | 42 | 331 | 5.2 | 7.8 | 0.00 | 1.80 | 0.71 | 99 | 1011.0 |
| 20260506213017 | 42 | 328 | 4.3 | 7.8 | 0.00 | 1.84 | 0.71 | 99 | 1011.0 |
| 20260506212017 | 42 | 326 | 4.3 | 7.0 | 0.00 | 1.88 | 0.71 | 99 | 1010.9 |
| 20260506211017 | 42 | 330 | 5.2 | 7.8 | 0.00 | 1.94 | 0.71 | 99 | 1010.7 |
| 20260506210017 | 42 | 329 | 5.2 | 8.7 | 0.00 | 2.04 | 0.71 | 99 | 1010.6 |
| 20260506205018 | 42 | 320 | 5.2 | 8.7 | 0.00 | 2.11 | 0.71 | 98 | 1010.6 |
| 20260506204018 | 43 | 326 | 5.2 | 8.7 | 0.00 | 2.19 | 0.71 | 98 | 1010.5 |
| 20260506203018 | 44 | 323 | 4.3 | 8.7 | 0.00 | 2.23 | 0.71 | 96 | 1010.5 |
| 20260506202018 | 46 | 315 | 5.2 | 9.6 | 0.00 | 2.24 | 0.70 | 94 | 1010.2 |
| 20260506201018 | 48 | 315 | 6.1 | 8.7 | 0.00 | 2.24 | 0.70 | 92 | 1010.0 |
| 20260506200018 | 50 | 302 | 4.3 | 10.4 | 0.00 | 2.24 | 0.70 | 87 | 1009.8 |
| 20260506195018 | 51 | 184 | 5.2 | 8.7 | 0.00 | 2.25 | 0.70 | 84 | 1009.4 |
| 20260506194018 | 51 | 175 | 4.3 | 7.8 | 0.00 | 2.25 | 0.70 | 87 | 1009.3 |
| 20260506193019 | 51 | 180 | 3.5 | 6.1 | 0.00 | 2.25 | 0.70 | 89 | 1009.4 |
| 20260506192019 | 50 | 171 | 3.5 | 6.1 | 0.00 | 2.25 | 0.70 | 90 | 1009.4 |
| 20260506191019 | 50 | 168 | 2.6 | 5.2 | 0.00 | 2.25 | 0.70 | 89 | 1009.5 |
| 20260506190019 | 50 | 162 | 0.9 | 2.6 | 0.00 | 2.25 | 0.70 | 88 | 1009.5 |
| 20260506185016 | 50 | 24 | 0.9 | 2.6 | 0.00 | 2.25 | 0.70 | 88 | 1009.3 |
| 20260506184016 | 50 | 348 | 2.6 | 3.5 | 0.00 | 2.25 | 0.70 | 86 | 1009.4 |
| 20260506183017 | 50 | 341 | 2.6 | 3.5 | 0.00 | 2.25 | 0.70 | 86 | 1009.4 |
| 20260506182017 | 51 | 355 | 1.7 | 2.6 | 0.00 | 2.25 | 0.70 | 85 | 1009.3 |
| 20260506181017 | 51 | 11 | 0.9 | 1.7 | 0.00 | 2.25 | 0.70 | 86 | 1009.4 |
| 20260506180018 | 51 | 347 | 2.6 | 4.3 | 0.00 | 2.26 | 0.70 | 86 | 1009.4 |
| 20260506175057 | 51 | 354 | 0.9 | 2.6 | 0.00 | 2.26 | 0.70 | 87 | 1009.4 |
| 20260506174017 | 50 | 16 | 0.9 | 2.6 | 0.00 | 2.26 | 0.70 | 88 | 1009.3 |
| 20260506173018 | 50 | 178 | 1.7 | 3.5 | 0.00 | 2.26 | 0.70 | 87 | 1009.5 |
| 20260506172018 | 49 | 352 | 1.7 | 2.6 | 0.00 | 2.27 | 0.70 | 90 | 1009.6 |
| 20260506171018 | 49 | 40 | 0.9 | 1.7 | 0.00 | 2.27 | 0.70 | 91 | 1009.7 |
| 20260506170018 | 49 | 346 | 0.9 | 1.7 | 0.00 | 2.27 | 0.70 | 91 | 1009.7 |
| 20260506165018 | 49 | 269 | 0.9 | 1.7 | 0.00 | 2.27 | 0.70 | 91 | 1009.6 |
| 20260506164018 | 49 | 345 | 1.7 | 3.5 | 0.00 | 2.27 | 0.70 | 91 | 1009.5 |
| 20260506163019 | 49 | 150 | 1.7 | 3.5 | 0.00 | 2.27 | 0.70 | 93 | 1009.3 |
| 20260506162019 | 49 | 13 | 0.9 | 2.6 | 0.00 | 2.28 | 0.70 | 95 | 1009.3 |
| 20260506161019 | 48 | 29 | 0.9 | 2.6 | 0.00 | 2.29 | 0.70 | 96 | 1009.5 |